Measurements were made at the meteorological tower in Juelich (50.90 N / 6.40 E) at an altitude of 100 m,
"Instrument: Fast Greenhouse Gas Analyzer (FGGA), Los Gatos Inc.",
Responsible PI: Dr. Marc von Hobe; Forschungszentrum Juelich GmbH; IEK-7; email: m.von.hobe@fz-juelich.de,
NaN or negative numbers are fill values (i.e. no valid measurements were made at that time),
Uncertainties are given as the 1-sigma standard deviation over each 10 minute intervals. In each interval ~600 individual measurements are carried out so that the standard error of the mean is approximately sigma/sqrt(600).,
time_utc,CO2_ppm,stdev_CO2_ppm,CH4_ppm,stdev_CH4_ppm,H2O_ppm,stdev_H2O_ppm
"2015-08-01 00:05:00 000",394.404,0.960711,1.92982,0.00430701,8131.75,124.712
"2015-08-01 00:15:00 000",394.358,0.859328,1.92932,0.00436300,8132.50,127.578
"2015-08-01 00:25:00 000",394.884,0.869911,1.92876,0.00443837,8197.97,124.026
"2015-08-01 00:35:00 000",395.880,1.10277,1.92975,0.00443560,8240.96,118.046
"2015-08-01 00:45:00 000",396.757,0.969992,1.93061,0.00470303,8268.02,130.188
"2015-08-01 00:55:00 000",396.479,0.884342,1.93168,0.00441639,8303.37,132.704
"2015-08-01 01:05:00 000",396.502,0.783042,1.93178,0.00459646,8317.35,132.913
"2015-08-01 01:15:00 000",396.252,0.803388,1.93185,0.00474649,8333.55,127.592
"2015-08-01 01:25:00 000",396.500,0.804880,1.93173,0.00468592,8352.46,129.103
"2015-08-01 01:35:00 000",396.521,0.808873,1.93376,0.00462009,8375.34,130.386
"2015-08-01 01:45:00 000",396.691,0.850305,1.93480,0.00466912,8388.75,132.934
"2015-08-01 01:55:00 000",397.431,0.841231,1.93634,0.00469822,8429.06,130.295
"2015-08-01 02:05:00 000",398.321,0.805529,1.93609,0.00452096,8434.91,133.464
"2015-08-01 02:15:00 000",398.088,0.775001,1.93614,0.00439203,8434.57,130.350
"2015-08-01 02:25:00 000",397.399,0.797774,1.93840,0.00444363,8446.50,127.857
"2015-08-01 02:35:00 000",397.609,0.918403,1.93951,0.00445181,8448.68,132.360
"2015-08-01 02:45:00 000",399.560,0.843286,1.93988,0.00443706,8485.44,133.062
"2015-08-01 02:55:00 000",398.182,0.919693,1.94399,0.00502125,8479.12,125.968
"2015-08-01 03:05:00 000",398.225,0.794212,1.94862,0.00474950,8517.25,134.198
"2015-08-01 03:15:00 000",398.764,0.763050,1.94933,0.00467938,8508.06,140.909
"2015-08-01 03:25:00 000",399.407,0.816567,1.95125,0.00486647,8524.35,138.975
"2015-08-01 03:35:00 000",400.323,0.946904,1.94912,0.00517813,8569.05,142.424
"2015-08-01 03:45:00 000",401.654,0.878237,1.95459,0.00648839,8652.87,148.863
"2015-08-01 03:55:00 000",402.107,0.745232,1.96753,0.00750358,8703.56,158.994
"2015-08-01 04:05:00 000",402.301,0.849557,1.99588,0.0207307,8707.74,177.970
"2015-08-01 04:15:00 000",404.342,0.887319,2.02003,0.0218088,8856.73,163.813
"2015-08-01 04:25:00 000",403.597,1.53410,1.96225,0.0146438,8797.59,165.806
"2015-08-01 04:35:00 000",401.935,1.30462,1.95704,0.00924839,8758.84,166.795
"2015-08-01 04:45:00 000",403.340,1.04798,1.96268,0.00790862,8768.89,169.197
"2015-08-01 04:55:00 000",400.009,1.50891,1.94257,0.00708720,8710.38,165.934
"2015-08-01 05:05:00 000",399.773,1.00931,1.94117,0.00586284,8731.04,168.873
"2015-08-01 05:15:00 000",401.064,0.942777,1.94859,0.00595806,8675.46,154.188
"2015-08-01 05:25:00 000",401.547,0.874676,1.94872,0.00549298,8630.40,156.552
"2015-08-01 05:35:00 000",400.800,0.939480,1.94568,0.00565038,8576.26,153.104
"2015-08-01 05:45:00 000",400.639,0.949824,1.94571,0.00600903,8525.08,143.759
"2015-08-01 05:55:00 000",401.498,1.24483,1.95071,0.00999798,8485.66,151.607
"2015-08-01 06:05:00 000",402.257,1.54180,1.96323,0.0140115,8598.11,154.125
"2015-08-01 06:15:00 000",402.765,1.17285,1.98364,0.0123504,8700.59,131.516
"2015-08-01 06:25:00 000",402.382,1.12915,1.98482,0.0116138,8772.38,133.216
"2015-08-01 06:35:00 000",400.670,1.22182,1.97130,0.0135231,8704.44,190.159
"2015-08-01 06:45:00 000",400.321,0.958263,1.96632,0.00496108,8665.99,135.459
"2015-08-01 06:55:00 000",400.543,0.959273,1.97109,0.00551102,8534.36,119.832
"2015-08-01 07:05:00 000",400.413,1.36678,1.96942,0.0111890,8361.55,179.118
"2015-08-01 07:15:00 000",402.403,1.19436,1.98157,0.00834042,8590.39,143.218
"2015-08-01 07:25:00 000",404.495,1.08712,1.98502,0.00815184,8665.35,124.124
"2015-08-01 07:35:00 000",405.932,1.02489,1.98668,0.00587181,8628.73,114.999
"2015-08-01 07:45:00 000",405.597,1.02037,1.98102,0.00547779,8698.98,93.6827
"2015-08-01 07:55:00 000",404.654,1.16330,1.97533,0.00596140,8765.07,143.754
"2015-08-01 08:05:00 000",405.353,1.30024,1.98040,0.00870454,8687.78,169.471
"2015-08-01 08:15:00 000",404.943,1.31790,1.98323,0.00686114,8655.95,129.911
"2015-08-01 08:25:00 000",404.363,1.26575,1.98183,0.00573723,8660.75,135.830
"2015-08-01 08:35:00 000",403.298,1.48386,1.98384,0.00817000,8607.80,205.509
"2015-08-01 08:45:00 000",402.335,1.56400,1.98392,0.00910015,8569.47,171.212
"2015-08-01 08:55:00 000",400.105,1.23612,1.97440,0.00651578,8339.47,143.698
"2015-08-01 09:05:00 000",396.994,1.49999,1.96103,0.00733423,8288.38,178.572
"2015-08-01 09:15:00 000",396.063,0.950235,1.96272,0.00456320,8320.74,99.4079
"2015-08-01 09:25:00 000",396.311,0.826150,1.96167,0.00413881,8357.81,99.7819
"2015-08-01 09:35:00 000",396.721,0.948411,1.95739,0.00482734,8349.80,112.249
"2015-08-01 09:45:00 000",396.472,1.04017,1.95407,0.00549429,8260.27,109.116
"2015-08-01 09:55:00 000",398.959,4.33096,1.94653,0.00654801,8475.13,289.248
"2015-08-01 10:05:00 000",410.751,1.36995,1.96037,0.00536749,8735.50,149.414
"2015-08-01 10:15:00 000",410.791,1.05246,1.95856,0.00509557,8900.24,115.084
"2015-08-01 10:25:00 000",411.888,1.42755,1.94045,0.00821370,8911.59,149.631
"2015-08-01 10:35:00 000",410.129,1.31044,1.93221,0.00437438,8794.39,269.413
"2015-08-01 10:45:00 000",407.381,1.57553,1.92992,0.00478866,8598.64,183.044
"2015-08-01 10:55:00 000",406.233,2.00582,1.92871,0.00562041,8643.48,113.765
"2015-08-01 11:05:00 000",403.545,1.84972,1.92156,0.00574706,8421.18,193.237
"2015-08-01 11:15:00 000",401.901,1.03434,1.91997,0.00408519,8353.65,128.305
"2015-08-01 11:25:00 000",401.725,1.09680,1.91899,0.00406680,8656.46,167.483
"2015-08-01 11:35:00 000",401.745,1.25136,1.91686,0.00396725,8755.08,236.019
"2015-08-01 11:45:00 000",401.800,1.08947,1.91759,0.00430867,8682.30,171.859
"2015-08-01 11:55:00 000",402.667,1.23374,1.91516,0.00423171,8678.15,210.483
"2015-08-01 12:05:00 000",402.701,1.04599,1.91615,0.00426128,8558.51,156.405
"2015-08-01 12:15:00 000",402.706,1.23397,1.91970,0.00510975,8701.69,161.456
"2015-08-01 12:25:00 000",401.835,1.21790,1.92075,0.00440321,8723.60,119.362
"2015-08-01 12:35:00 000",399.762,1.07571,1.92018,0.00426623,8664.88,172.111
"2015-08-01 12:45:00 000",399.244,0.926410,1.91848,0.00414324,8630.04,94.7961
"2015-08-01 12:55:00 000",398.827,1.18946,1.91700,0.00428391,8797.72,250.125
"2015-08-01 13:05:00 000",397.889,1.99217,1.91678,0.00415891,8589.42,146.179
"2015-08-01 13:15:00 000",394.314,1.30142,1.91592,0.00398656,8572.99,119.304
"2015-08-01 13:25:00 000",395.248,0.966488,1.91560,0.00424519,8464.47,74.8918
"2015-08-01 13:35:00 000",393.480,1.98645,1.91570,0.00398740,8523.96,135.225
"2015-08-01 13:45:00 000",390.106,0.932697,1.91537,0.00398201,8482.21,109.057
"2015-08-01 13:55:00 000",389.953,1.02608,1.91370,0.00399007,8410.97,81.3558
"2015-08-01 14:05:00 000",391.217,2.15978,1.91322,0.00390886,8561.58,175.398
"2015-08-01 14:15:00 000",391.747,1.61549,1.91526,0.00400500,8550.63,91.9787
"2015-08-01 14:25:00 000",390.254,1.14256,1.91547,0.00382814,8554.31,105.477
"2015-08-01 14:35:00 000",387.930,1.41599,1.91654,0.00389326,8673.10,168.762
"2015-08-01 14:45:00 000",388.081,0.956327,1.91404,0.00416076,8499.97,110.763
"2015-08-01 14:55:00 000",388.467,0.908344,1.91607,0.00410590,8502.53,99.1917
"2015-08-01 15:05:00 000",388.162,0.908080,1.91855,0.00418416,8571.51,92.7309
"2015-08-01 15:15:00 000",387.803,0.900702,1.91877,0.00394149,8609.04,91.4365
"2015-08-01 15:25:00 000",387.264,0.949789,1.91972,0.00412715,8712.83,169.418
"2015-08-01 15:35:00 000",387.593,1.24192,1.91951,0.00404461,8670.19,159.091
"2015-08-01 15:45:00 000",389.135,0.916461,1.92164,0.00402424,8520.20,81.1795
"2015-08-01 15:55:00 000",387.778,1.07971,1.92632,0.00605528,8696.01,156.956
"2015-08-01 16:05:00 000",385.720,0.841650,1.95261,0.00393972,8876.93,135.312
"2015-08-01 16:15:00 000",386.475,0.897879,1.95189,0.00403886,8891.49,103.177
"2015-08-01 16:25:00 000",385.808,0.901014,1.95256,0.00406131,8947.24,111.150
"2015-08-01 16:35:00 000",386.132,0.887020,1.95400,0.00403192,8898.66,110.219
"2015-08-01 16:45:00 000",386.952,0.758815,1.95192,0.00407365,8790.04,81.6724
"2015-08-01 16:55:00 000",386.640,0.787464,1.95176,0.00385895,8844.17,94.0363
"2015-08-01 17:05:00 000",386.539,0.791454,1.94979,0.00398327,8876.31,100.255
"2015-08-01 17:15:00 000",386.552,0.738805,1.95335,0.00403677,8751.35,83.3121
"2015-08-01 17:25:00 000",386.417,0.870829,1.95511,0.00357484,8791.35,115.562
"2015-08-01 17:35:00 000",386.312,0.772997,1.95688,0.00360683,8737.21,117.355
"2015-08-01 17:45:00 000",386.548,0.765647,1.96015,0.00367765,8653.84,110.573
"2015-08-01 17:55:00 000",386.271,0.712398,1.96681,0.00435289,8589.97,104.193
"2015-08-01 18:05:00 000",386.110,0.714867,1.97043,0.00359700,8602.92,92.6551
"2015-08-01 18:15:00 000",385.826,0.729823,1.97646,0.00390845,8552.19,81.4072
"2015-08-01 18:25:00 000",385.796,0.744576,1.97867,0.00352922,8627.99,131.958
"2015-08-01 18:35:00 000",385.683,0.736478,1.98063,0.00360120,8507.45,138.097
"2015-08-01 18:45:00 000",385.434,0.724181,1.98076,0.00373843,8439.86,78.4432
"2015-08-01 18:55:00 000",385.503,0.757401,1.98247,0.00358745,8468.12,74.6344
"2015-08-01 19:05:00 000",385.381,0.725175,1.98236,0.00343060,8436.44,76.7407
"2015-08-01 19:15:00 000",386.104,1.17778,1.99278,0.0126368,8659.41,351.965
"2015-08-01 19:25:00 000",388.074,0.829954,2.01300,0.00571067,9306.29,113.038
"2015-08-01 19:35:00 000",388.978,0.983752,2.01870,0.00387922,9572.12,119.301
"2015-08-01 19:45:00 000",389.731,0.911359,2.02313,0.00449446,9764.67,120.158
"2015-08-01 19:55:00 000",390.538,0.899326,2.02453,0.00419830,9965.03,99.8407
"2015-08-01 20:05:00 000",390.282,1.28984,2.01593,0.00663800,9966.04,105.417
"2015-08-01 20:15:00 000",387.803,1.49077,1.99753,0.00683480,9857.86,89.4781
"2015-08-01 20:25:00 000",387.189,0.956000,1.99221,0.00457051,9804.54,92.4587
"2015-08-01 20:35:00 000",386.725,0.986376,1.98479,0.00456978,9861.43,86.8479
"2015-08-01 20:45:00 000",385.810,0.922449,1.98510,0.00578817,9826.30,97.9277
"2015-08-01 20:55:00 000",385.343,0.910791,1.97946,0.00480889,9791.45,118.749
"2015-08-01 21:05:00 000",385.573,0.910851,1.98189,0.00494766,9721.54,128.450
"2015-08-01 21:15:00 000",386.305,0.950595,1.98928,0.00665740,9757.31,129.604
"2015-08-01 21:25:00 000",387.353,0.916325,1.99300,0.00548065,9795.58,133.448
"2015-08-01 21:35:00 000",387.738,1.00635,1.99850,0.00577801,9791.21,144.611
"2015-08-01 21:45:00 000",386.604,1.21765,1.99600,0.00545029,9852.07,144.368
"2015-08-01 21:55:00 000",387.352,1.58544,1.99711,0.00547386,9912.24,152.836
"2015-08-01 22:05:00 000",387.182,1.26770,1.99442,0.00617487,9937.99,158.287
"2015-08-01 22:15:00 000",386.763,0.942066,1.99238,0.00557747,9903.13,154.232
"2015-08-01 22:25:00 000",389.821,1.24066,1.99900,0.00549794,9945.29,146.427
"2015-08-01 22:35:00 000",392.151,2.02760,2.00605,0.00626194,9946.74,149.634
"2015-08-01 22:45:00 000",391.203,1.22482,2.01336,0.00561274,9925.14,138.231
"2015-08-01 22:55:00 000",391.242,0.862516,2.01901,0.00470015,9975.70,120.856
"2015-08-01 23:05:00 000",391.644,0.850646,2.02079,0.00482498,10003.8,118.840
"2015-08-01 23:15:00 000",392.445,0.883702,2.02185,0.00433720,9963.30,106.409
"2015-08-01 23:25:00 000",392.407,0.828988,2.01992,0.00436430,9942.25,97.9220
"2015-08-01 23:35:00 000",392.235,0.933244,2.01757,0.00436521,9954.59,91.8915
"2015-08-01 23:45:00 000",391.900,0.784384,2.01710,0.00409247,9947.93,88.3772
"2015-08-01 23:55:00 000",392.417,0.771525,2.01678,0.00410196,9944.98,88.1058
"2015-08-02 00:05:00 000",391.964,0.777475,2.02050,0.00391694,9933.57,77.1002
"2015-08-02 00:15:00 000",392.130,0.803081,2.02332,0.00367975,9925.17,78.0351
"2015-08-02 00:25:00 000",391.854,0.824944,2.03231,0.0101382,9971.80,77.3354
"2015-08-02 00:35:00 000",391.844,0.839433,2.03912,0.0109905,10021.6,79.5924
"2015-08-02 00:45:00 000",392.850,0.857988,2.04958,0.00623459,10060.4,79.2257
"2015-08-02 00:55:00 000",391.881,0.984429,2.04938,0.00479300,10073.4,84.2142
"2015-08-02 01:05:00 000",390.985,0.878241,2.06476,0.00564840,10105.6,94.7475
"2015-08-02 01:15:00 000",390.491,0.912998,2.08351,0.00675506,10159.4,102.204
"2015-08-02 01:25:00 000",390.214,0.923656,2.07876,0.0114003,10257.0,117.438
"2015-08-02 01:35:00 000",389.953,1.16294,2.06938,0.00692054,10270.4,141.143
"2015-08-02 01:45:00 000",389.850,0.993198,2.07581,0.00726758,10289.8,161.875
"2015-08-02 01:55:00 000",389.765,1.23359,2.07256,0.00721224,10293.4,163.554
"2015-08-02 02:05:00 000",390.500,2.07796,2.07872,0.00792074,10307.3,173.296
"2015-08-02 02:15:00 000",388.995,1.11787,2.07679,0.0104196,10299.4,165.585
"2015-08-02 02:25:00 000",388.913,0.950893,2.07075,0.00773350,10273.6,155.879
"2015-08-02 02:35:00 000",388.373,0.849630,2.05536,0.00710773,10261.1,152.987
"2015-08-02 02:45:00 000",388.946,0.899068,2.06442,0.00754832,10249.4,162.351
"2015-08-02 02:55:00 000",389.207,0.881256,2.07750,0.0128663,10271.9,166.786
"2015-08-02 03:05:00 000",389.405,0.864671,2.08288,0.00712136,10273.6,161.682
"2015-08-02 03:15:00 000",389.371,0.943633,2.07689,0.00757137,10292.8,161.816
"2015-08-02 03:25:00 000",390.226,1.16152,2.09897,0.0101406,10289.2,168.885
"2015-08-02 03:35:00 000",392.107,1.22389,2.11619,0.0158355,10397.7,160.799
"2015-08-02 03:45:00 000",391.241,0.926106,2.10594,0.00646474,10392.8,164.571
"2015-08-02 03:55:00 000",391.284,0.892768,2.11267,0.00788132,10390.0,163.196
"2015-08-02 04:05:00 000",391.123,1.01698,2.10458,0.00752241,10410.8,164.320
"2015-08-02 04:15:00 000",392.578,1.09691,2.11683,0.00946744,10367.0,158.532
"2015-08-02 04:25:00 000",392.577,1.01843,2.11557,0.00874239,10355.1,173.690
"2015-08-02 04:35:00 000",395.606,1.67901,2.13730,0.00969808,10384.9,161.287
"2015-08-02 04:45:00 000",393.027,1.36555,2.10996,0.0151164,10365.0,135.021
"2015-08-02 04:55:00 000",393.445,1.11036,2.10841,0.0100512,10304.0,142.289
"2015-08-02 05:05:00 000",392.758,1.08711,2.10370,0.00977456,10288.8,127.131
"2015-08-02 05:15:00 000",392.376,0.805883,2.10218,0.00503771,10267.0,98.8155
"2015-08-02 05:25:00 000",393.224,0.848108,2.10012,0.00562287,10306.3,95.1987
"2015-08-02 05:35:00 000",394.508,1.58647,2.11318,0.0160219,10258.7,92.4384
"2015-08-02 05:45:00 000",395.069,1.38299,2.11922,0.0111621,10094.6,99.8288
"2015-08-02 05:55:00 000",397.605,1.61452,2.14718,0.0172053,9987.74,94.1644
"2015-08-02 06:05:00 000",397.430,1.76724,2.14000,0.0145700,9869.50,87.8358
"2015-08-02 06:15:00 000",398.247,1.62770,2.13595,0.00737490,9743.71,83.8233
"2015-08-02 06:25:00 000",398.482,1.23482,2.14483,0.00948205,9720.67,78.4395
"2015-08-02 06:35:00 000",410.023,14.4132,2.13675,0.0127571,10070.3,308.759
"2015-08-02 06:45:00 000",424.855,6.95320,2.12758,0.00732207,10464.7,157.705
"2015-08-02 06:55:00 000",420.163,7.99021,2.11464,0.0109717,10478.8,200.868
"2015-08-02 07:05:00 000",418.981,6.69877,2.10792,0.00836055,10643.4,212.333
"2015-08-02 07:15:00 000",411.360,5.62843,2.10722,0.00743877,10574.1,254.221
"2015-08-02 07:25:00 000",410.507,2.22739,2.11255,0.00668399,10768.9,129.709
"2015-08-02 07:35:00 000",405.772,2.32005,2.10156,0.0120980,10446.0,188.877
"2015-08-02 07:45:00 000",401.330,2.38031,2.07774,0.0154604,10210.1,242.569
"2015-08-02 07:55:00 000",399.923,2.47069,2.08373,0.0208723,10362.6,305.504
"2015-08-02 08:05:00 000",396.724,2.20865,2.09894,0.0247148,10216.8,316.616
"2015-08-02 08:15:00 000",392.388,1.50446,2.06130,0.0200725,9740.29,210.621
"2015-08-02 08:25:00 000",391.303,1.00320,2.02825,0.00906462,9532.76,145.456
"2015-08-02 08:35:00 000",389.008,1.32865,2.00984,0.0107383,9317.80,193.610
"2015-08-02 08:45:00 000",387.077,0.952585,1.99350,0.00859320,9044.37,203.982
"2015-08-02 08:55:00 000",389.888,2.33434,1.99087,0.00791897,8996.15,174.974
"2015-08-02 09:05:00 000",398.198,4.11503,1.99209,0.00532677,9007.80,123.855
"2015-08-02 09:15:00 000",397.595,5.23531,1.99708,0.00603047,9241.40,134.384
"2015-08-02 09:25:00 000",401.371,2.36533,2.00867,0.00593935,9500.76,144.853
"2015-08-02 09:35:00 000",404.492,1.93435,2.02521,0.00522968,9740.04,103.360
"2015-08-02 09:45:00 000",398.603,4.91993,2.02399,0.00504533,9667.18,125.127
"2015-08-02 09:55:00 000",391.240,1.10782,2.02168,0.00639958,9585.05,162.346
"2015-08-02 10:05:00 000",392.351,1.54482,2.02472,0.00647774,9720.81,122.131
"2015-08-02 10:15:00 000",397.265,2.71694,2.02464,0.00563705,9549.12,108.418
"2015-08-02 10:25:00 000",399.320,2.16510,2.01552,0.00560552,9505.62,152.340
"2015-08-02 10:35:00 000",398.640,2.09779,2.00951,0.00588779,9376.68,136.883
"2015-08-02 10:45:00 000",397.048,1.39412,2.00690,0.00549199,9299.47,86.3549
"2015-08-02 10:55:00 000",392.994,1.75016,1.99649,0.00655393,9248.41,181.959
"2015-08-02 11:05:00 000",389.805,1.29776,1.98923,0.00844484,9053.83,215.568
"2015-08-02 11:15:00 000",388.081,0.943294,1.97972,0.00557582,9060.51,242.457
"2015-08-02 11:25:00 000",387.798,0.961304,1.97541,0.00530027,8735.00,141.432
"2015-08-02 11:35:00 000",387.049,0.966212,1.97502,0.00553772,8746.38,146.282
"2015-08-02 11:45:00 000",387.610,0.922525,1.98113,0.00471667,9009.00,148.380
"2015-08-02 11:55:00 000",388.114,0.868765,1.98540,0.00517808,9192.61,164.162
"2015-08-02 12:05:00 000",388.147,0.890768,1.98451,0.00415698,9273.67,151.929
"2015-08-02 12:15:00 000",387.147,0.985379,1.98125,0.00495178,9230.89,122.032
"2015-08-02 12:25:00 000",386.932,0.892943,1.97779,0.00446107,9079.02,125.770
"2015-08-02 12:35:00 000",387.079,0.810754,1.97507,0.00435063,9052.15,95.1364
"2015-08-02 12:45:00 000",386.487,0.905557,1.97279,0.00397248,9164.33,180.505
"2015-08-02 12:55:00 000",386.653,0.791497,1.97013,0.00462633,8815.89,123.984
"2015-08-02 13:05:00 000",386.617,0.797861,1.96909,0.00426226,8866.01,127.727
"2015-08-02 13:15:00 000",386.844,0.805281,1.96988,0.00423941,8862.89,103.589
"2015-08-02 13:25:00 000",386.837,0.843340,1.96882,0.00420052,8725.79,119.871
"2015-08-02 13:35:00 000",386.097,0.830392,1.96464,0.00421231,8619.64,122.367
"2015-08-02 13:45:00 000",386.420,0.879852,1.96765,0.00389286,8915.08,125.681
"2015-08-02 13:55:00 000",386.798,0.826381,1.96405,0.00497834,8865.33,157.640
"2015-08-02 14:05:00 000",386.950,0.914040,1.95970,0.00414678,8578.03,129.102
"2015-08-02 14:15:00 000",387.147,0.892499,1.95913,0.00410800,8487.28,143.414
"2015-08-02 14:25:00 000",387.423,0.858761,1.96043,0.00415645,8576.48,145.942
"2015-08-02 14:35:00 000",387.815,0.834844,1.96010,0.00477019,8523.70,178.269
"2015-08-02 14:45:00 000",387.605,0.897249,1.96096,0.00421635,8749.80,254.813
"2015-08-02 14:55:00 000",387.494,0.922819,1.95814,0.00413491,8561.62,222.327
"2015-08-02 15:05:00 000",386.659,0.937388,1.95587,0.00394047,8613.10,166.950
"2015-08-02 15:15:00 000",387.088,0.862385,1.95587,0.00374503,8448.15,103.276
"2015-08-02 15:25:00 000",386.639,0.949000,1.95560,0.00399824,8639.03,119.680
"2015-08-02 15:35:00 000",386.045,1.01674,1.95576,0.00401385,8930.83,153.274
"2015-08-02 15:45:00 000",385.646,1.05168,1.95712,0.00444085,8994.84,167.311
"2015-08-02 15:55:00 000",386.377,1.06952,1.95890,0.00419165,8937.37,175.179
"2015-08-02 16:05:00 000",385.603,1.11857,1.95667,0.00416081,9163.84,218.385
"2015-08-02 16:15:00 000",386.693,0.941211,1.95557,0.00404012,8926.10,132.563
"2015-08-02 16:25:00 000",386.364,1.01788,1.95732,0.00419162,9116.86,171.719
"2015-08-02 16:35:00 000",386.622,0.807711,1.95594,0.00408878,9072.51,93.5724
"2015-08-02 16:45:00 000",386.880,0.844554,1.95432,0.00412940,9007.51,130.686
"2015-08-02 16:55:00 000",387.072,0.824026,1.95273,0.00405967,9077.99,106.641
"2015-08-02 17:05:00 000",387.362,0.899058,1.95203,0.00405034,9147.86,141.765
"2015-08-02 17:15:00 000",388.174,0.893548,1.95131,0.00410557,9061.68,106.158
"2015-08-02 17:25:00 000",387.523,0.854605,1.95014,0.00403048,9152.31,117.491
"2015-08-02 17:35:00 000",386.280,1.36265,1.94835,0.00467616,9308.60,166.927
"2015-08-02 17:45:00 000",385.464,0.899468,1.94831,0.00454657,9660.58,120.164
"2015-08-02 17:55:00 000",385.009,0.840184,1.94644,0.00421461,9772.42,99.0690
"2015-08-02 18:05:00 000",384.616,1.16281,1.94981,0.00520688,9821.57,108.421
"2015-08-02 18:15:00 000",383.130,1.04145,1.94570,0.00420166,9900.30,113.727
"2015-08-02 18:25:00 000",381.924,0.882847,1.94422,0.00416639,9924.72,99.7646
"2015-08-02 18:35:00 000",381.595,0.950643,1.94216,0.00414454,10080.7,89.4620
"2015-08-02 18:45:00 000",381.175,0.850867,1.94311,0.00422748,10234.5,80.2859
"2015-08-02 18:55:00 000",381.332,0.901708,1.94209,0.00430051,10190.0,98.9523
"2015-08-02 19:05:00 000",381.401,0.871312,1.94209,0.00414430,10114.7,88.8981
"2015-08-02 19:15:00 000",381.652,0.896040,1.94465,0.00455915,10268.4,144.717
"2015-08-02 19:25:00 000",381.851,0.801958,1.94779,0.00426598,10380.6,109.835
"2015-08-02 19:35:00 000",382.103,0.943355,1.94746,0.00412592,10520.4,71.7406
"2015-08-02 19:45:00 000",382.334,0.889989,1.94976,0.00440420,10661.9,88.1413
"2015-08-02 19:55:00 000",382.655,1.01748,1.94959,0.00422170,10724.1,73.6789
"2015-08-02 20:05:00 000",382.294,0.934593,1.95062,0.00421488,10691.4,77.7142
"2015-08-02 20:15:00 000",381.561,0.861621,1.95058,0.00413684,10626.8,73.9715
"2015-08-02 20:25:00 000",381.407,1.00677,1.95266,0.00430554,10674.6,87.7738
"2015-08-02 20:35:00 000",383.755,0.856366,1.95493,0.00400653,10819.4,78.0600
"2015-08-02 20:45:00 000",384.343,0.842981,1.95793,0.00431443,10871.4,75.9417
"2015-08-02 20:55:00 000",383.976,0.873022,1.96177,0.00428626,10865.3,74.1559
"2015-08-02 21:05:00 000",383.468,0.890166,1.96748,0.00438161,10928.3,79.6186
"2015-08-02 21:15:00 000",384.418,0.962253,1.97137,0.00404492,11038.0,75.2658
"2015-08-02 21:25:00 000",384.756,0.788080,1.97289,0.00406320,11121.4,73.5446
"2015-08-02 21:35:00 000",385.469,0.866927,1.97478,0.00405992,11191.0,72.0081
"2015-08-02 21:45:00 000",386.566,0.816518,1.97581,0.00388633,11261.4,70.7643
"2015-08-02 21:55:00 000",386.501,0.750326,1.97027,0.00398327,11271.8,75.5117
"2015-08-02 22:05:00 000",387.645,1.30262,1.96939,0.00398361,11310.3,77.7816
"2015-08-02 22:15:00 000",389.453,0.910670,1.97417,0.00459014,11376.6,70.9839
"2015-08-02 22:25:00 000",388.543,1.09890,1.97803,0.00438188,11409.2,79.6103
"2015-08-02 22:35:00 000",388.047,0.815378,1.97926,0.00448973,11485.4,75.3143
"2015-08-02 22:45:00 000",388.203,0.847042,1.98483,0.00484435,11539.5,67.2537
"2015-08-02 22:55:00 000",387.812,0.787253,1.98126,0.00431514,11589.8,74.4528
"2015-08-02 23:05:00 000",387.478,0.840795,1.97585,0.00526245,11684.6,78.5515
"2015-08-02 23:15:00 000",387.907,0.820974,1.97476,0.00446411,11788.0,78.0298
"2015-08-02 23:25:00 000",388.472,0.802792,1.97839,0.00409589,11869.5,72.2070
"2015-08-02 23:35:00 000",388.939,0.770656,1.97961,0.00370387,11948.0,85.3226
"2015-08-02 23:45:00 000",388.953,0.835131,1.97994,0.00407672,11989.7,75.1249
"2015-08-02 23:55:00 000",389.177,0.776309,1.97947,0.00488251,11968.6,70.5226
"2015-08-03 00:05:00 000",389.404,0.848235,1.98227,0.00451464,11938.0,70.0927
"2015-08-03 00:15:00 000",389.671,1.03946,1.98069,0.00454638,11803.5,137.252
"2015-08-03 00:25:00 000",391.057,0.887191,1.97830,0.00488415,11490.7,89.5688
"2015-08-03 00:35:00 000",392.264,1.02633,1.96836,0.00747874,11301.3,106.651
"2015-08-03 00:45:00 000",395.137,0.848429,1.97688,0.00640352,11312.9,106.937
"2015-08-03 00:55:00 000",396.442,1.05455,1.98126,0.00638449,11161.5,120.620
"2015-08-03 01:05:00 000",395.563,1.55685,1.96902,0.00829052,10847.5,145.708
"2015-08-03 01:15:00 000",393.965,1.54971,1.95739,0.00593479,10506.5,124.835
"2015-08-03 01:25:00 000",397.774,1.45460,1.96806,0.00561403,10564.8,140.304
"2015-08-03 01:35:00 000",399.356,1.28792,1.96775,0.00822108,10544.0,115.802
"2015-08-03 01:45:00 000",400.967,2.41727,1.95839,0.00439520,10526.8,100.352
"2015-08-03 01:55:00 000",403.778,4.60078,1.95467,0.00403191,10495.5,130.804
"2015-08-03 02:05:00 000",399.138,0.947906,1.95263,0.00394220,10332.9,107.799